Regional Weather Roundup
Issued by NWS

Home | Current Version | Previous Version | Graphics & Text | Print | Product List | Glossary On
Versions: 1 2 3 4 5 6 7 8 9 10 11 12 13 14 15 16 17 18 19 20 21 22 23 24 25 26 27 28 29 30 31 32 33 34 35 36 37 38 39 40 41 42 43 44 45 46 47 48 49 50
000
ASUS45 KABQ 290901
RWRNM
NEW MEXICO REGIONAL WEATHER ROUNDUP
NATIONAL WEATHER SERVICE ALBUQUERQUE NM
300 AM MDT SAT AUG 29 2015

NOTE: "FAIR" MEANS FEW OR NO CLOUDS BELOW 12,000 FEET AGL WITH NO
       SIGNIFICANT WEATHER OR OBSTRUCTIONS TO VISION.

      THIS PRODUCT IS RELEASED AS TWO VERSIONS.  ONE VERSION NEAR
      THE TOP OF THE HOUR CONTAINING PRELIMINARY DATA FROM ALBUQUERQUE
      AND OTHER STATIONS.  A FINAL VERSION WITH ADDITIONAL DATA IS
      ISSUED ABOUT 10 MINUTES AFTER THE HOUR.

NMZ501-503-504-510>518-291000-
NORTHWEST PLATEAU/NORTHCENTRAL MOUNTAINS

CITY           SKY/WX    TMP DP  RH WIND       PRES   REMARKS
FARMINGTON     CLEAR     64  46  52 E8        30.21S
SANTA FE       LGT RAIN  61  54  77 SW8       30.35R
TAOS           MOCLDY    57  39  51 NE3       30.40R

$$
NMZ402-403-502-505>509-291000-
WESTCENTRAL MOUNTAINS/SOUTHWEST MOUNTAINS

CITY           SKY/WX    TMP DP  RH WIND       PRES   REMARKS
GALLUP         PTCLDY    56  42  59 E5        30.30S
GRANTS         CLEAR     61  51  70 S9        30.34S
SILVER CITY      N/A     70  54  56 SE12      30.22F THUNDER

$$
NMZ407-409-411-412-291000-
SOUTHERN DESERTS

CITY           SKY/WX    TMP DP  RH WIND       PRES   REMARKS
DEMING         PTCLDY    72  56  57 E9        30.15S
HOLLOMAN AFB   PTCLDY    71  55  56 W8        30.15S
ALAMOGORDO     MOCLDY    68  54  60 CALM      30.17S
T OR C         CLOUDY    69  58  67 N5        30.22R

$$
NMZ519>523-291000-
CENTRAL VALLEYS/CENTRAL HIGHLANDS

CITY           SKY/WX    TMP DP  RH WIND       PRES   REMARKS
ALBUQUERQUE    LGT RAIN  73  48  41 E8        30.26F
DOUBLE EAGLE   CLOUDY    64  50  61 SW5       30.30F
MORIARTY ARPT  FAIR      51  48  89 N3        30.35S
CLINES CORNERS PTCLDY    56  51  84 E5        30.37F
BELEN          FAIR      71  51  49 SE9       30.25S
SOCORRO        NOT AVBL

$$
NMZ524>526-539-540-291000-
SOUTHCENTRAL MOUNTAINS

CITY           SKY/WX    TMP DP  RH WIND       PRES   REMARKS
RUIDOSO        MOCLDY    57  55  94 MISG      30.38F

$$
NMZ527>531-291000-
NORTHEAST HIGHLANDS/NORTHEAST PLAINS

CITY           SKY/WX    TMP DP  RH WIND       PRES   REMARKS
LAS VEGAS      CLEAR     52  48  86 N6        30.38F
RATON          PTCLDY    53  49  86 NE6       30.33S
CLAYTON        PTCLDY    64  54  69 W6        30.22S

$$
NMZ532>537-291000-
EASTCENTRAL PLAINS

CITY           SKY/WX    TMP DP  RH WIND       PRES   REMARKS
TUCUMCARI      CLOUDY    66  59  78 W7        30.16S
CANNON AFB     CLOUDY    67  63  86 W6        30.17F
CLOVIS AIRPORT CLOUDY    66  61  82 W9        30.17F

$$
NMZ028-029-538-291000-
SOUTHEAST PLAINS

CITY           SKY/WX    TMP DP  RH WIND       PRES   REMARKS
ROSWELL        CLOUDY    67  62  84 W14       30.09F
ARTESIA        CLOUDY    66  66 100 W8        30.15F
CARLSBAD       NOT AVBL


$$



USA.gov is the U.S. government's official web portal to all federal, state and local government web resources and services.